TimeMST,TemperatureF,Dew PointF,Humidity,Sea Level PressureIn,VisibilityMPH,Wind Direction,Wind SpeedMPH,Gust SpeedMPH,PrecipitationIn,Events,Conditions,WindDirDegrees,DateUTC
12:55 AM,34.0,28.9,82,30.19,10.0,West,3.5,-,N/A,,Overcast,270,2013-12-16 07:55:00
1:55 AM,30.0,27.0,88,30.21,10.0,Calm,Calm,-,N/A,,Mostly Cloudy,0,2013-12-16 08:55:00
2:55 AM,28.0,26.1,92,30.23,10.0,SSE,6.9,-,N/A,,Mostly Cloudy,160,2013-12-16 09:55:00
3:55 AM,39.9,30.0,68,30.21,10.0,South,9.2,-,N/A,,Overcast,180,2013-12-16 10:55:00
4:55 AM,39.9,30.0,68,30.21,10.0,SSW,9.2,-,N/A,,Overcast,200,2013-12-16 11:55:00
5:55 AM,39.9,30.0,68,30.21,10.0,South,9.2,-,N/A,,Overcast,180,2013-12-16 12:55:00
6:55 AM,39.9,28.9,65,30.23,10.0,SSW,10.4,-,N/A,,Overcast,200,2013-12-16 13:55:00
7:55 AM,39.9,28.9,65,30.24,10.0,South,10.4,-,N/A,,Overcast,190,2013-12-16 14:55:00
8:55 AM,37.0,28.9,73,30.26,10.0,WNW,5.8,-,N/A,,Overcast,290,2013-12-16 15:55:00
9:55 AM,37.9,30.0,73,30.29,10.0,SSW,9.2,-,N/A,,Overcast,200,2013-12-16 16:55:00
10:55 AM,41.0,28.9,62,30.29,10.0,South,9.2,-,N/A,,Scattered Clouds,190,2013-12-16 17:55:00
11:55 AM,39.9,28.9,65,30.29,10.0,SSE,8.1,-,N/A,,Partly Cloudy,150,2013-12-16 18:55:00
12:55 PM,41.0,30.0,65,30.30,10.0,SSE,9.2,-,N/A,,Clear,160,2013-12-16 19:55:00
1:55 PM,41.0,28.0,60,30.30,10.0,South,9.2,-,N/A,,Partly Cloudy,190,2013-12-16 20:55:00
2:55 PM,39.9,28.0,63,30.32,10.0,South,11.5,-,N/A,,Clear,190,2013-12-16 21:55:00
3:55 PM,39.9,27.0,60,30.31,10.0,SSW,9.2,-,N/A,,Clear,200,2013-12-16 22:55:00
4:55 PM,37.9,27.0,65,30.32,10.0,SSW,10.4,-,N/A,,Clear,200,2013-12-16 23:55:00
5:55 PM,32.0,25.0,75,30.34,10.0,North,-9999.0,-,N/A,,Clear,0,2013-12-17 00:55:00
6:55 PM,30.9,25.0,79,30.35,10.0,Calm,Calm,-,N/A,,Clear,0,2013-12-17 01:55:00
7:55 PM,32.0,25.0,75,30.37,10.0,SW,4.6,-,N/A,,Clear,230,2013-12-17 02:55:00
8:55 PM,24.1,21.0,88,30.39,10.0,ENE,4.6,-,N/A,,Clear,60,2013-12-17 03:55:00
9:55 PM,24.1,21.0,88,30.40,10.0,WNW,4.6,-,N/A,,Clear,300,2013-12-17 04:55:00
10:55 PM,19.9,18.0,92,30.40,10.0,NW,4.6,-,N/A,,Clear,320,2013-12-17 05:55:00
11:55 PM,19.0,18.0,96,30.39,8.0,NNE,3.5,-,N/A,,Clear,30,2013-12-17 06:55:00